Regional Weather Roundup
Issued by NWS Green Bay, WI

Home | Current Version | Previous Version | Graphics & Text | Print | Product List | Glossary Off
Versions: 1 2 3 4 5 6 7 8 9 10 11 12 13 14 15 16 17 18 19 20 21 22 23 24 25 26 27 28 29 30 31 32 33 34 35 36 37 38 39 40 41 42 43 44 45 46 47 48 49 50

000
ASUS43 KGRB 160610
RWRGRB

NORTH-CENTRAL AND NORTHEAST WISCONSIN REGIONAL WEATHER ROUNDUP
NATIONAL WEATHER SERVICE GREEN BAY WI
100 AM CDT TUE SEP 16 2014

WIZ005-009-010>012-018-019-160700-
NORTH CENTRAL WISCONSIN

CITY           SKY/WX    TMP DP  RH WIND       PRES   REMARKS
IRONWOOD       CLEAR     39  36  87 W5        30.12S
MANITOWISH WTR CLEAR     32  32 100 CALM      30.15S FOG
ARBOR VITAE    CLEAR     38  36  92 CALM      30.15S
EAGLE RIVER    PTCLDY    32  32 100 CALM      30.14S FOG
LAND O LAKES   CLEAR     31  31 100 CALM      30.14F
RHINELANDER    CLEAR     33  32  96 W7        30.16F
PHILLIPS       CLEAR     38  35  91 CALM      30.16F
ANTIGO         CLEAR     35  34  96 CALM      30.17S
TOMAHAWK       CLEAR     33  32  96 CALM      30.18S
MERRILL        MOCLDY    35  34  94 CALM      30.18S
$$

WIZ013-073-160700-
NORTHEAST WISCONSIN

CITY           SKY/WX    TMP DP  RH WIND       PRES   REMARKS
IRON MOUNTAIN  CLEAR     39  35  86 CALM      30.13S
MARINETTE      CLEAR     45  39  81 NW3       30.14S
OCONTO         CLEAR     40  40 100 CALM      30.15S
$$

WIZ017-030-035>037-045-160700-
CENTRAL WISCONSIN

CITY           SKY/WX    TMP DP  RH WIND       PRES   REMARKS
MEDFORD        CLEAR     35  34  96 CALM      30.18F
WAUSAU         CLEAR     40  38  93 N3        30.18R
MOSINEE        CLEAR     39  37  93 W6        30.19S
MARSHFIELD     CLEAR     40  37  89 W3        30.19S
WISC RAPIDS    CLEAR     39  37  92 CALM      30.21S FOG
STEVENS POINT  CLEAR     37  36  96 CALM      30.19S
WAUPACA        CLEAR     44  41  91 CALM      30.19S
SHAWANO        CLEAR     44  41  91 CALM      30.18R
CLINTONVILLE   CLEAR     41  37  87 CALM      30.18S
$$

WIZ038-039-048-051-160700-
FOX VALLEY

CITY           SKY/WX    TMP DP  RH WIND       PRES   REMARKS
NWS GREEN BAY  CLEAR     43  41  93 W3        30.17R
APPLETON       CLEAR     43  37  81 NW8       30.18S
OSHKOSH        CLOUDY    48  43  82 W5        30.18R
FOND DU LAC    CLEAR     45  41  86 CALM      30.19R
$$

WIZ022-050-052-160700-
EAST CENTRAL WISCONSIN

CITY           SKY/WX    TMP DP  RH WIND       PRES   REMARKS
STURGEON BAY   CLOUDY    52  41  66 N7        30.15S
MANITOWOC      CLEAR     48  44  86 NW7       30.16R
SHEBOYGAN      CLEAR     48  45  89 NW8       30.16R
$$

LMZ563-521-522-541>543-160700-
LAKESHORE

STATION/POSITION TIME  TEMP    WIND        PRES    VSBY  WAVE
                       AIR SEA DIR/SP/G                  HT/PER
                 (UTC) (F)     (DEG/KT/KT) (MB)    (MI)  (FT/S)
SHEBOYGAN LKSHOR 0600   50 51  290/ 11/ 13 1021.8R
KEWAUNEE LKSHORE 0600   48                   N/A
NORTHPORT PIER   0600   56     340/ 10/ 11 1020.3S
N MID LAKE BUOY  0600   55 58  350/ 10/ 12 1020.2R         1/ 3
S GREEN BAY BUOY 0600   53     VRB 10/ 12  1021.7S
CHAMBERS ISLAND  0600   53     300/  6/ 10 1020.7S
MENOMINEE LKSHOR 0600   49                   N/A
$$



USA.gov is the U.S. government's official web portal to all federal, state and local government web resources and services.